Starlink 32577

operational
NORAD ID: 62044 Int'l Des: 2024-216 Owner: SPXS Country: US Constellation: starlink
LEOCIRCULAR

Starlink 32577について

説明を読み込み中...

リアルタイム位置

3D地球を読み込み中...

次回通過

高度履歴

Altitude vs Time

uPlot chart will show altitude changes over time

軌道要素

1 62044U 24216N 25353.06809175 .00017086 00000-0 62867-3 0 9999
2 62044 43.0059 358.7237 0001784 268.9642 91.1005 15.27595904 61472
Epoch: Dec 19, 2025 • Age: 18 hours

現在のステータス

高度 489.5 km
速度 7.62 km/s
衛星直下点 -28.17°S, 177.46°W
打ち上げ日 Nov 21, 2024
運用期間 1 years
タイプ internet

技術仕様

分類 Payload
質量 730.00 kg
乾燥質量 700.00 kg
総質量 730.00 kg
長さ 0.30 m
直径 4.10 m
スパン 29.00 m
形状 Box + pan
製造者 SPXS
バスタイプ Starlink V2M
フェーズステータス In Orbit
所有者/国 SPXS/US

大規模コンステレーション

Loading constellations...